AFR2409 LFPG-LFJL

Flight info

Callsign AFR2409
Flight time 0h 34m
Altitude 19000
Route DIKOL J10 SUIPE M163 MMD
Aircraft A320/M-SDE3FGHIRWY/LB1

Departure

Time 2026-05-08 11:44
Airport Charles de Gaulle International Airport (LFPG)

Arrival

Time 2026-05-08 12:19
Airport Metz-Nancy-Lorraine Airport (LFJL)
Time Latitude Longitude Altitude Speed Heading
2026-05-08 11:14 49.01614 2.57815 355 ft 0 kts 355°
2026-05-08 11:32 49.01611 2.57816 354 ft 3 kts 355°
2026-05-08 11:32 49.01585 2.57818 356 ft 4 kts
2026-05-08 11:32 49.01558 2.57816 361 ft 4 kts
2026-05-08 11:32 49.01533 2.57805 362 ft 4 kts 37°
2026-05-08 11:33 49.01522 2.57784 359 ft 1 kts 99°
2026-05-08 11:33 49.01523 2.57783 359 ft 0 kts 100°
2026-05-08 11:36 49.01522 2.57792 361 ft 4 kts 100°
2026-05-08 11:36 49.01502 2.57876 356 ft 13 kts 115°
2026-05-08 11:37 49.01511 2.58009 358 ft 14 kts 40°
2026-05-08 11:37 49.01613 2.58012 354 ft 16 kts 356°
2026-05-08 11:37 49.01733 2.57999 361 ft 20 kts 355°
2026-05-08 11:37 49.01897 2.57961 357 ft 25 kts 335°
2026-05-08 11:38 49.01997 2.57748 357 ft 26 kts 278°
2026-05-08 11:38 49.01988 2.57459 359 ft 28 kts 265°
2026-05-08 11:38 49.01972 2.57153 354 ft 30 kts 265°
2026-05-08 11:38 49.01955 2.56831 354 ft 31 kts 265°
2026-05-08 11:39 49.01936 2.56495 354 ft 32 kts 265°
2026-05-08 11:39 49.01918 2.56150 356 ft 34 kts 265°
2026-05-08 11:39 49.01899 2.55788 354 ft 34 kts 265°
2026-05-08 11:39 49.01880 2.55419 354 ft 35 kts 265°
2026-05-08 11:40 49.01860 2.55043 361 ft 36 kts 265°
2026-05-08 11:40 49.01838 2.54658 354 ft 37 kts 265°
2026-05-08 11:40 49.01818 2.54267 358 ft 37 kts 266°
2026-05-08 11:40 49.01797 2.53874 354 ft 36 kts 265°
2026-05-08 11:41 49.01777 2.53499 358 ft 34 kts 265°
2026-05-08 11:41 49.01760 2.53169 354 ft 25 kts 265°
2026-05-08 11:41 49.01744 2.52898 361 ft 27 kts 265°
2026-05-08 11:41 49.01728 2.52608 358 ft 28 kts 265°
2026-05-08 11:42 49.01771 2.52372 354 ft 22 kts 344°
2026-05-08 11:42 49.01928 2.52350 354 ft 22 kts 356°
2026-05-08 11:42 49.02027 2.52339 357 ft 2 kts 355°
2026-05-08 11:42 49.02084 2.52348 362 ft 14 kts 20°
2026-05-08 11:43 49.02126 2.52478 356 ft 15 kts 85°
2026-05-08 11:43 49.02140 2.52728 356 ft 49 kts 85°
2026-05-08 11:43 49.02188 2.53629 353 ft 117 kts 86°
2026-05-08 11:43 49.02269 2.55137 354 ft 166 kts 85°
2026-05-08 11:44 49.02346 2.56916 931 ft 170 kts 86°
2026-05-08 11:44 49.02425 2.58770 1657 ft 173 kts 85°
2026-05-08 11:44 49.02525 2.60616 2423 ft 179 kts 84°
2026-05-08 11:44 49.02640 2.62630 2804 ft 204 kts 84°
2026-05-08 11:45 49.02768 2.64885 3262 ft 228 kts 85°
2026-05-08 11:45 49.02910 2.67428 3838 ft 252 kts 85°
2026-05-08 11:45 49.03059 2.70148 4754 ft 261 kts 85°
2026-05-08 11:45 49.03206 2.72942 5701 ft 266 kts 85°
2026-05-08 11:46 49.03349 2.75786 6626 ft 271 kts 86°
2026-05-08 11:46 49.03491 2.78686 7485 ft 277 kts 86°
2026-05-08 11:46 49.03633 2.81653 8322 ft 284 kts 86°
2026-05-08 11:46 49.03773 2.84695 9218 ft 290 kts 86°
2026-05-08 11:47 49.03917 2.87792 10107 ft 295 kts 86°
2026-05-08 11:47 49.04067 2.91003 10553 ft 316 kts 86°
2026-05-08 11:47 49.04234 2.94401 11007 ft 332 kts 85°
2026-05-08 11:47 49.04468 2.97938 11752 ft 338 kts 84°
2026-05-08 11:48 49.04744 3.01526 12550 ft 343 kts 84°
2026-05-08 11:48 49.05035 3.05166 13345 ft 347 kts 84°
2026-05-08 11:48 49.05324 3.08842 14098 ft 352 kts 84°
2026-05-08 11:48 49.05609 3.12571 14808 ft 355 kts 85°
2026-05-08 11:49 49.05889 3.16340 15499 ft 360 kts 85°
2026-05-08 11:49 49.06166 3.20156 16192 ft 364 kts 85°
2026-05-08 11:49 49.06443 3.24022 16883 ft 368 kts 85°
2026-05-08 11:49 49.06722 3.27922 17563 ft 372 kts 85°
2026-05-08 11:50 49.07001 3.31868 18230 ft 376 kts 85°
2026-05-08 11:50 49.07277 3.35805 18805 ft 380 kts 85°
2026-05-08 11:50 49.07558 3.39823 19014 ft 382 kts 85°
2026-05-08 11:50 49.07836 3.43817 19069 ft 370 kts 85°
2026-05-08 11:51 49.08107 3.47672 19075 ft 361 kts 85°
2026-05-08 11:51 49.08369 3.51469 19080 ft 359 kts 85°
2026-05-08 11:51 49.08628 3.55261 19076 ft 359 kts 85°
2026-05-08 11:51 49.08949 3.59046 19074 ft 359 kts 83°
2026-05-08 11:52 49.09336 3.62815 19077 ft 359 kts 82°
2026-05-08 11:52 49.09752 3.66572 19073 ft 359 kts 82°
2026-05-08 11:52 49.10175 3.70331 19072 ft 359 kts 82°
2026-05-08 11:52 49.10590 3.74094 19072 ft 359 kts 82°
2026-05-08 11:53 49.10994 3.77853 19075 ft 359 kts 82°
2026-05-08 11:53 49.11388 3.81619 19077 ft 359 kts 82°
2026-05-08 11:53 49.11776 3.85390 19080 ft 359 kts 82°
2026-05-08 11:53 49.12158 3.89161 19083 ft 359 kts 83°
2026-05-08 11:54 49.12535 3.92923 19088 ft 359 kts 83°
2026-05-08 11:54 49.12915 3.96698 19090 ft 359 kts 82°
2026-05-08 11:54 49.13300 4.00428 19091 ft 360 kts 80°
2026-05-08 11:54 49.14011 4.04096 19094 ft 361 kts 68°
2026-05-08 11:55 49.15198 4.07468 19090 ft 361 kts 56°
2026-05-08 11:55 49.16759 4.10479 19090 ft 362 kts 50°
2026-05-08 11:55 49.18361 4.13445 19091 ft 362 kts 51°
2026-05-08 11:55 49.19958 4.16430 19091 ft 362 kts 51°
2026-05-08 11:56 49.21545 4.19411 19095 ft 362 kts 51°
2026-05-08 11:56 49.23144 4.22405 19099 ft 362 kts 51°
2026-05-08 11:56 49.24624 4.25509 19097 ft 362 kts 60°
2026-05-08 11:56 49.25678 4.28938 19098 ft 360 kts 72°
2026-05-08 11:57 49.26338 4.32636 19096 ft 359 kts 77°
2026-05-08 11:57 49.26941 4.36363 19094 ft 360 kts 77°
2026-05-08 11:57 49.27550 4.40094 19094 ft 360 kts 77°
2026-05-08 11:57 49.28160 4.43810 19094 ft 360 kts 77°
2026-05-08 11:58 49.28771 4.47531 19096 ft 360 kts 77°
2026-05-08 11:58 49.29375 4.51219 19099 ft 360 kts 77°
2026-05-08 11:58 49.29984 4.54949 19099 ft 360 kts 77°
2026-05-08 11:59 49.31189 4.62398 19095 ft 359 kts 77°
2026-05-08 11:59 49.31787 4.66128 19091 ft 359 kts 77°
2026-05-08 11:59 49.32384 4.69850 19094 ft 360 kts 77°
2026-05-08 11:59 49.32978 4.73569 19092 ft 360 kts 77°
2026-05-08 12:00 49.33565 4.77251 19094 ft 360 kts 77°
2026-05-08 12:00 49.34160 4.80980 19092 ft 360 kts 77°
2026-05-08 12:00 49.34755 4.84713 19094 ft 360 kts 77°
2026-05-08 12:00 49.35348 4.88441 19094 ft 360 kts 77°
2026-05-08 12:01 49.35940 4.92176 19091 ft 360 kts 77°
2026-05-08 12:01 49.36531 4.95913 19091 ft 360 kts 77°
2026-05-08 12:01 49.37119 4.99653 19093 ft 360 kts 77°
2026-05-08 12:01 49.37706 5.03392 19093 ft 360 kts 77°
2026-05-08 12:02 49.38295 5.07125 19093 ft 360 kts 77°
2026-05-08 12:02 49.38800 5.10891 19093 ft 359 kts 85°
2026-05-08 12:02 49.38859 5.14656 19093 ft 357 kts 96°
2026-05-08 12:02 49.38517 5.18423 19094 ft 356 kts 101°
2026-05-08 12:03 49.38131 5.22166 19093 ft 356 kts 101°
2026-05-08 12:03 49.37747 5.25938 19094 ft 356 kts 101°
2026-05-08 12:03 49.37362 5.29688 19095 ft 356 kts 101°
2026-05-08 12:03 49.36977 5.33431 19094 ft 356 kts 101°
2026-05-08 12:04 49.36591 5.37189 19092 ft 356 kts 101°
2026-05-08 12:04 49.36203 5.40934 19096 ft 355 kts 101°
2026-05-08 12:04 49.35815 5.44680 19099 ft 355 kts 101°
2026-05-08 12:04 49.35425 5.48426 19100 ft 355 kts 101°
2026-05-08 12:05 49.35033 5.52164 19102 ft 355 kts 101°
2026-05-08 12:05 49.34635 5.55936 19101 ft 366 kts 101°
2026-05-08 12:05 49.34221 5.59831 19090 ft 371 kts 101°
2026-05-08 12:05 49.33816 5.63668 19009 ft 358 kts 101°
2026-05-08 12:06 49.33428 5.67376 18812 ft 349 kts 101°
2026-05-08 12:06 49.33047 5.70994 18632 ft 340 kts 101°
2026-05-08 12:06 49.32670 5.74545 18451 ft 335 kts 101°
2026-05-08 12:06 49.32287 5.78105 17917 ft 341 kts 101°
2026-05-08 12:07 49.31898 5.81702 17320 ft 344 kts 101°
2026-05-08 12:07 49.31504 5.85335 16740 ft 346 kts 101°
2026-05-08 12:07 49.31108 5.88979 16316 ft 345 kts 101°
2026-05-08 12:07 49.30723 5.92540 16184 ft 334 kts 101°
2026-05-08 12:08 49.30346 5.96030 15799 ft 332 kts 101°
2026-05-08 12:08 49.29967 5.99524 15294 ft 331 kts 101°
2026-05-08 12:08 49.29595 6.02946 14974 ft 320 kts 101°
2026-05-08 12:08 49.29228 6.06294 14558 ft 316 kts 101°
2026-05-08 12:09 49.28862 6.09599 14132 ft 313 kts 101°
2026-05-08 12:09 49.28503 6.12831 13685 ft 311 kts 101°
2026-05-08 12:09 49.27993 6.16021 13198 ft 305 kts 117°
2026-05-08 12:09 49.26764 6.18579 12725 ft 297 kts 142°
2026-05-08 12:10 49.24985 6.20046 12255 ft 286 kts 167°
2026-05-08 12:10 49.23052 6.20252 11801 ft 275 kts 186°
2026-05-08 12:10 49.21168 6.19980 11338 ft 268 kts 186°
2026-05-08 12:10 49.19332 6.19715 10891 ft 261 kts 186°
2026-05-08 12:11 49.17548 6.19462 10450 ft 255 kts 186°
2026-05-08 12:11 49.15824 6.19222 10022 ft 249 kts 186°
2026-05-08 12:11 49.14118 6.18987 9552 ft 243 kts 185°
2026-05-08 12:11 49.12444 6.18757 9084 ft 239 kts 185°
2026-05-08 12:12 49.10793 6.18529 8606 ft 235 kts 185°
2026-05-08 12:12 49.09175 6.18305 8137 ft 232 kts 185°
2026-05-08 12:12 49.07578 6.18082 7682 ft 229 kts 185°
2026-05-08 12:12 49.06001 6.17860 7230 ft 226 kts 185°
2026-05-08 12:13 49.04461 6.17644 6797 ft 224 kts 185°
2026-05-08 12:13 49.02915 6.17432 6352 ft 222 kts 184°
2026-05-08 12:13 49.01386 6.17225 5960 ft 216 kts 184°
2026-05-08 12:13 48.99922 6.17024 5554 ft 206 kts 184°
2026-05-08 12:14 48.98494 6.16828 5005 ft 206 kts 184°
2026-05-08 12:14 48.97084 6.16632 4558 ft 201 kts 183°
2026-05-08 12:14 48.95718 6.16442 4173 ft 192 kts 183°
2026-05-08 12:14 48.94430 6.16264 4005 ft 177 kts 182°
2026-05-08 12:15 48.93268 6.16101 3990 ft 158 kts 183°
2026-05-08 12:15 48.92183 6.15952 3704 ft 159 kts 182°
2026-05-08 12:15 48.91088 6.16112 3271 ft 161 kts 147°
2026-05-08 12:15 48.90520 6.17456 2879 ft 155 kts 89°
2026-05-08 12:16 48.90925 6.18861 2576 ft 146 kts 38°
2026-05-08 12:16 48.91866 6.19200 2338 ft 144 kts 351°
2026-05-08 12:16 48.92815 6.18782 2086 ft 140 kts 359°
2026-05-08 12:16 48.93623 6.19365 2027 ft 129 kts 49°
2026-05-08 12:17 48.94291 6.20351 1793 ft 135 kts 39°
2026-05-08 12:17 48.94782 6.20910 1644 ft 132 kts 39°
2026-05-08 12:17 48.95740 6.22063 1311 ft 133 kts 44°
2026-05-08 12:17 48.96455 6.22954 1053 ft 133 kts 43°
2026-05-08 12:18 48.97179 6.23843 916 ft 133 kts 42°
2026-05-08 12:18 48.97829 6.24655 878 ft 88 kts 40°
2026-05-08 12:18 48.98074 6.24960 876 ft 61 kts 39°
2026-05-08 12:18 48.98376 6.25333 879 ft 53 kts 40°
2026-05-08 12:19 48.98609 6.25616 878 ft 27 kts 37°
2026-05-08 12:19 48.98727 6.25586 877 ft 19 kts 305°
2026-05-08 12:19 48.98709 6.25421 877 ft 17 kts 223°
2026-05-08 12:19 48.98621 6.25312 877 ft 18 kts 219°
2026-05-08 12:20 48.98480 6.25139 877 ft 33 kts 219°
2026-05-08 12:20 48.98279 6.24890 876 ft 38 kts 219°
2026-05-08 12:20 48.98102 6.24671 876 ft 28 kts 219°
2026-05-08 12:20 48.97989 6.24529 876 ft 14 kts 219°
2026-05-08 12:21 48.97915 6.24438 876 ft 13 kts 219°
2026-05-08 12:21 48.97849 6.24357 876 ft 12 kts 219°
2026-05-08 12:21 48.97803 6.24271 876 ft 10 kts 268°
2026-05-08 12:21 48.97837 6.24189 876 ft 9 kts 302°
2026-05-08 12:22 48.97847 6.24165 876 ft 0 kts 303°